Location: Brompton
(51.4000°N, 0.5333°E)
Time: 10:07:38
(UTC+00:00)

Cosmos 1898 Rocket - Pass Details

Date: 28 September 2021
Orbit: 752 x 784 km, 74.0° (Epoch: 17 October)

Event Time Altitude Azimuth Distance (km) Brightness Sun altitude
Rises 22:55:30 0° 277° (W) 3,231 7.0 -39.8°
Reaches altitude 10° 22:59:54 10° 312° (NW) 2,318 6.5 -40.0°
Maximum altitude 23:01:26 11° 329° (NNW) 2,242 6.5 -40.0°
Drops below altitude 10° 23:02:57 10° 346° (NNW) 2,327 6.7 -40.1°
Sets 23:07:26 0° 21° (NNE) 3,267 7.4 -40.3°
